STARLINK-36722, 67917

Orbit data source: Space-Track

STARLINK-36722, 67917 is a payload satellite owned by SpaceX/Seattle (US) in LEO that was launched on Sun, 22 Feb 2026 UTC via an FALCON 9 launch vehicle from the Air Force Eastern Test Range (AFETR). Payload-class satellites include a variety of spacecraft equipped with specific instruments for various scientific and technological missions. These include communications satellites like Starlink; space stations such as the ISS; scientific satellites like the Hubble; Earth observation satellites from companies like Planet Labs, Umbra, and HawkEye 360; GPS; miniature CubeSats for education and research; and military/defense satellites.

Loading next visibility...
Identifier
67917, 2026-036P
Orbit
LEO
Country
Flag of USUS
Related business
Manufacturer
SpaceX/Seattle
Mission
Operational Commercial Communications
Bus & Motor
STARLINK V2MO, Unknown motor
Mass
575 kg wet, ~530 kg dry
Launch date (UTC)
2026-02-22 (4 months ago)
Launch vehicle
FALCON 9
Launch site
Air Force Eastern Test Range (AFETR)
Object type
Payload
Rocket body
Debris
Shape & HBR
Box + 2 Pan, 17.7 m
Radar Cross Section
36.964 m², Large (>1 m²)

Expand to show TLE details & history
Last TLE update: 1 day ago

TLE from 1 day ago
0 STARLINK-36722
1 67917U 26036P   26171.00618209  .00016608  00000-0  61128-3 0  9992
2 67917  43.0020  27.1115 0001416 285.1808  74.8887 15.27601149 19370
Epoch: 2026-06-20T00:08Z
TLE epoch observation values (Epoch: 2026-06-20T00:08:54.132Z)
Latitude
-0.00002°
Longitude
116.65892°
Altitude
482.508 km
Speed
7.626 km/s
True Right ascension
01h 48m 26s
True Declination
0° 00' 00"
Sunlit
Object was in daylight at epoch
Visualization orbit readout
Latitude
Unknown
Longitude
Unknown
Altitude
Unknown
Speed
Unknown
Apparent Right ascension
Unknown
Apparent Declination
Unknown
Sunlit
N/A
Visualization observer readout
Local Sidereal Time
11:43:26
Azimuth
Unknown
Elevation
Unknown
Doppler factor
Unknown
Orbital elements
Apogee altitude
485.902 km
Perigee altitude
483.959 km
Semi-major axis
6,863.068 km
Eccentricity
0.00014
Inclination
43.002°
RAAN
27.1115°
Arg. of periapsis
285.1808°
True anomaly
74.90437°
Mean anomaly
74.8887°
Eccentric anomaly
74.89653°
Mean motion
3.81738 °/min
Orbital period
94.31 mins
BSTAR
0.00061128
Loading maneuver chart data...
Computing Atmospheric mass density...
Loading historical data...
Loading historical data...
Loading historical data...
Loading historical data...
Loading historical data...
Loading historical data...
Loading historical data...

Documentation

Showing up to 5 results
|